| time (UTC) | temp F | wind direction | speed MPH | gust MPH | rain 1hr in | rain 24hr in | rain mn in | humidity % | barometer mb |
| 20260904140045 | 60 | 149 | 0.0 | 0.0 | 0.00 | 0.00 | 0.00 | 34 | 1005.9 |
| 20260904134545 | 59 | 148 | 0.0 | 0.0 | 0.00 | 0.00 | 0.00 | 34 | 1005.9 |
| 20260904133043 | 58 | 159 | 0.0 | 0.0 | 0.00 | 0.00 | 0.00 | 36 | 1005.7 |
| 20260904131541 | 58 | 155 | 0.0 | 0.0 | 0.00 | 0.00 | 0.00 | 34 | 1005.5 |
| 20260904130039 | 57 | 183 | 0.0 | 0.0 | 0.00 | 0.00 | 0.00 | 36 | 1005.2 |
| 20260904124549 | 56 | 187 | 0.0 | 0.0 | 0.00 | 0.00 | 0.00 | 38 | 1005.1 |
| 20260904123041 | 56 | 187 | 0.0 | 0.0 | 0.00 | 0.00 | 0.00 | 39 | 1005.0 |
| 20260904121536 | 57 | 187 | 0.0 | 0.0 | 0.00 | 0.00 | 0.00 | 37 | 1005.0 |
| 20260904120034 | 59 | 184 | 0.0 | 0.0 | 0.00 | 0.00 | 0.00 | 32 | 1004.9 |
| 20260904114539 | 60 | 360 | 0.0 | 0.0 | 0.00 | 0.00 | 0.00 | 32 | 1004.9 |
| 20260904113039 | 60 | 184 | 0.0 | 0.0 | 0.00 | 0.00 | 0.00 | 31 | 1004.8 |
| 20260904111531 | 59 | 174 | 0.0 | 0.0 | 0.00 | 0.00 | 0.00 | 33 | 1004.8 |
| 20260904110029 | 59 | 175 | 0.0 | 0.0 | 0.00 | 0.00 | 0.00 | 33 | 1004.8 |
| 20260904104529 | 59 | 175 | 0.0 | 0.0 | 0.00 | 0.00 | 0.00 | 34 | 1004.7 |
| 20260904103035 | 59 | 175 | 0.0 | 0.0 | 0.00 | 0.00 | 0.00 | 34 | 1004.5 |
| 20260904101523 | 59 | 165 | 0.0 | 0.0 | 0.00 | 0.00 | 0.00 | 36 | 1004.4 |
| 20260904100020 | 58 | 163 | 0.0 | 0.0 | 0.00 | 0.00 | 0.00 | 38 | 1004.3 |
| 20260904094519 | 58 | 177 | 0.0 | 0.0 | 0.00 | 0.00 | 0.00 | 37 | 1004.3 |
| 20260904093016 | 56 | 360 | 0.0 | 0.0 | 0.00 | 0.00 | 0.00 | 40 | 1004.3 |
| 20260904091512 | 52 | 360 | 0.0 | 0.0 | 0.00 | 0.00 | 0.00 | 49 | 1004.3 |
| 20260904090011 | 48 | 360 | 0.0 | 0.0 | 0.00 | 0.00 | 0.00 | 54 | 1004.3 |
| 20260904084509 | 48 | 360 | 0.0 | 0.0 | 0.00 | 0.00 | 0.00 | 55 | 1004.2 |
| 20260904083007 | 49 | 360 | 0.0 | 0.0 | 0.00 | 0.00 | 0.00 | 54 | 1004.1 |
| 20260904081505 | 48 | 360 | 0.0 | 0.0 | 0.00 | 0.00 | 0.00 | 56 | 1004.0 |
| 20260904080005 | 49 | 360 | 0.0 | 0.0 | 0.00 | 0.00 | 0.00 | 56 | 1004.3 |
| 20260904074500 | 50 | 360 | 0.0 | 0.0 | 0.00 | 0.00 | 0.00 | 57 | 1004.2 |
| 20260904073106 | 50 | 360 | 0.0 | 0.0 | 0.00 | 0.00 | 0.00 | 56 | 1004.2 |
| 20260904071559 | 51 | 360 | 0.0 | 0.0 | 0.00 | 0.00 | 0.00 | 55 | 1004.1 |
| 20260904070106 | 52 | 360 | 0.0 | 0.0 | 0.00 | 0.00 | 0.00 | 55 | 1004.1 |
| 20260904064550 | 53 | 360 | 0.0 | 0.0 | 0.00 | 0.00 | 0.00 | 53 | 1004.1 |
| 20260904063054 | 53 | 360 | 0.0 | 0.0 | 0.00 | 0.00 | 0.00 | 53 | 1003.9 |
| 20260904061544 | 54 | 360 | 0.0 | 0.0 | 0.00 | 0.00 | 0.00 | 51 | 1003.9 |
| 20260904060040 | 55 | 360 | 0.0 | 0.0 | 0.00 | 0.00 | 0.00 | 48 | 1003.7 |
| 20260904054536 | 58 | 360 | 0.0 | 0.0 | 0.00 | 0.00 | 0.00 | 43 | 1003.6 |
| 20260904053037 | 59 | 360 | 0.0 | 0.0 | 0.00 | 0.00 | 0.00 | 40 | 1003.6 |
| 20260904051535 | 58 | 360 | 0.0 | 0.0 | 0.00 | 0.00 | 0.00 | 43 | 1003.7 |
| 20260904050032 | 59 | 360 | 0.0 | 0.0 | 0.00 | 0.00 | 0.00 | 41 | 1003.6 |
| 20260904044519 | 61 | 360 | 0.0 | 0.0 | 0.00 | 0.00 | 0.00 | 39 | 1003.7 |
| 20260904043014 | 62 | 360 | 0.0 | 0.0 | 0.00 | 0.00 | 0.00 | 34 | 1003.7 |
| 20260904041509 | 63 | 360 | 0.0 | 0.0 | 0.00 | 0.00 | 0.00 | 34 | 1003.6 |
| 20260904040004 | 63 | 205 | 0.0 | 0.0 | 0.00 | 0.00 | 0.00 | 33 | 1003.5 |
| 20260904034600 | 64 | 205 | 0.0 | 0.0 | 0.00 | 0.00 | 0.00 | 32 | 1003.4 |
| 20260904033056 | 65 | 206 | 0.0 | 0.0 | 0.00 | 0.00 | 0.00 | 32 | 1003.5 |
| 20260904031552 | 65 | 207 | 0.0 | 0.0 | 0.00 | 0.00 | 0.00 | 31 | 1003.2 |
| 20260904030047 | 65 | 207 | 0.0 | 0.0 | 0.00 | 0.00 | 0.00 | 31 | 1003.1 |
| 20260904024546 | 65 | 207 | 0.0 | 0.0 | 0.00 | 0.00 | 0.00 | 29 | 1002.9 |
| 20260904023039 | 64 | 207 | 0.0 | 0.0 | 0.00 | 0.00 | 0.00 | 32 | 1002.7 |
| 20260904021540 | 64 | 207 | 0.0 | 0.0 | 0.00 | 0.00 | 0.00 | 37 | 1002.5 |
| 20260904020030 | 66 | 212 | 0.0 | 0.0 | 0.00 | 0.00 | 0.00 | 32 | 1002.2 |
| 20260904014525 | 68 | 212 | 0.0 | 0.0 | 0.00 | 0.00 | 0.00 | 32 | 1002.1 |
| 20260904013021 | 73 | 212 | 0.0 | 0.0 | 0.00 | 0.00 | 0.00 | 24 | 1002.1 |
| 20260904011524 | 74 | 212 | 0.0 | 0.0 | 0.00 | 0.00 | 0.00 | 21 | 1002.1 |
| 20260904010012 | 75 | 212 | 0.0 | 0.0 | 0.00 | 0.00 | 0.00 | 22 | 1002.2 |
| 20260904004512 | 76 | 220 | 0.0 | 0.0 | 0.00 | 0.00 | 0.00 | 21 | 1002.3 |
| 20260904003004 | 76 | 206 | 0.0 | 0.0 | 0.00 | 0.00 | 0.00 | 23 | 1002.4 |
| 20260904001601 | 76 | 178 | 0.0 | 0.0 | 0.00 | 0.00 | 0.00 | 21 | 1002.5 |
| 20260904000138 | 76 | 166 | 0.0 | 0.0 | 0.00 | 0.00 | 0.00 | 20 | 1002.7 |
| 20260903234552 | 76 | 360 | 0.0 | 0.0 | 0.00 | 0.00 | 0.00 | 19 | 1002.8 |
| 20260903233046 | 77 | 157 | 0.0 | 0.0 | 0.00 | 0.00 | 0.00 | 19 | 1002.8 |
| 20260903231542 | 77 | 360 | 0.0 | 0.0 | 0.00 | 0.00 | 0.00 | 19 | 1002.9 |
| 20260903230037 | 76 | 190 | 0.0 | 0.0 | 0.00 | 0.00 | 0.00 | 22 | 1003.0 |
| 20260903224543 | 76 | 174 | 0.0 | 0.0 | 0.00 | 0.00 | 0.00 | 20 | 1003.2 |
| 20260903223030 | 76 | 146 | 0.0 | 0.0 | 0.00 | 0.00 | 0.00 | 21 | 1003.5 |
| 20260903221523 | 76 | 360 | 0.0 | 0.0 | 0.00 | 0.00 | 0.00 | 22 | 1003.6 |
| 20260903220018 | 76 | 196 | 0.0 | 0.0 | 0.00 | 0.00 | 0.00 | 20 | 1003.7 |
| 20260903214520 | 76 | 175 | 0.0 | 0.0 | 0.00 | 0.00 | 0.00 | 22 | 1004.1 |
| 20260903213016 | 76 | 174 | 0.0 | 0.0 | 0.00 | 0.00 | 0.00 | 22 | 1004.3 |
| 20260903211504 | 75 | 164 | 0.0 | 0.0 | 0.00 | 0.00 | 0.00 | 23 | 1004.5 |
| 20260903210103 | 75 | 175 | 0.0 | 0.0 | 0.00 | 0.00 | 0.00 | 22 | 1004.8 |
| 20260903204556 | 75 | 188 | 0.0 | 0.0 | 0.00 | 0.00 | 0.00 | 22 | 1005.1 |
| 20260903203051 | 75 | 360 | 0.0 | 0.0 | 0.00 | 0.00 | 0.00 | 22 | 1005.2 |
| 20260903201548 | 75 | 360 | 0.0 | 0.0 | 0.00 | 0.00 | 0.00 | 21 | 1005.3 |
| 20260903200043 | 74 | 164 | 0.0 | 0.0 | 0.00 | 0.00 | 0.00 | 19 | 1005.4 |
| 20260903194547 | 74 | 173 | 0.0 | 0.0 | 0.00 | 0.00 | 0.00 | 20 | 1005.5 |
| 20260903193033 | 74 | 176 | 0.0 | 0.0 | 0.00 | 0.00 | 0.00 | 20 | 1005.8 |
| 20260903191540 | 74 | 144 | 0.0 | 0.0 | 0.00 | 0.00 | 0.00 | 18 | 1005.8 |
| 20260903190027 | 73 | 205 | 0.0 | 0.0 | 0.00 | 0.00 | 0.00 | 22 | 1006.1 |
| 20260903184523 | 74 | 169 | 0.0 | 0.0 | 0.00 | 0.00 | 0.00 | 19 | 1006.2 |
| 20260903183015 | 73 | 157 | 0.0 | 0.0 | 0.00 | 0.00 | 0.00 | 20 | 1006.6 |
| 20260903181530 | 73 | 178 | 0.0 | 0.0 | 0.00 | 0.00 | 0.00 | 22 | 1006.8 |
| 20260903180006 | 72 | 161 | 0.0 | 0.0 | 0.00 | 0.00 | 0.00 | 22 | 1006.9 |
| 20260903174501 | 72 | 155 | 0.0 | 0.0 | 0.00 | 0.00 | 0.00 | 20 | 1007.0 |
| 20260903173057 | 71 | 140 | 0.0 | 0.0 | 0.00 | 0.00 | 0.00 | 20 | 1006.9 |
| 20260903171555 | 71 | 136 | 0.0 | 0.0 | 0.00 | 0.00 | 0.00 | 22 | 1007.2 |
| 20260903170056 | 70 | 153 | 0.0 | 0.0 | 0.00 | 0.00 | 0.00 | 23 | 1007.1 |
| 20260903164544 | 69 | 156 | 0.0 | 0.0 | 0.00 | 0.00 | 0.00 | 24 | 1007.1 |
| 20260903163056 | 68 | 168 | 0.0 | 0.0 | 0.00 | 0.00 | 0.00 | 25 | 1007.2 |
| 20260903161536 | 65 | 174 | 0.0 | 0.0 | 0.00 | 0.00 | 0.00 | 29 | 1007.3 |
| 20260903160029 | 59 | 275 | 0.0 | 0.0 | 0.00 | 0.00 | 0.00 | 44 | 1007.4 |
| 20260903154526 | 57 | 275 | 0.0 | 0.0 | 0.00 | 0.00 | 0.00 | 43 | 1007.7 |
| 20260903153025 | 55 | 266 | 0.0 | 0.0 | 0.00 | 0.00 | 0.00 | 37 | 1008.0 |
| 20260903151524 | 54 | 265 | 0.0 | 0.0 | 0.00 | 0.00 | 0.00 | 30 | 1008.2 |
| 20260903150032 | 51 | 258 | 0.0 | 0.0 | 0.00 | 0.00 | 0.00 | 33 | 1008.3 |
| 20260903144519 | 49 | 258 | 0.0 | 0.0 | 0.00 | 0.00 | 0.00 | 25 | 1008.4 |
| 20260903143014 | 47 | 258 | 0.0 | 0.0 | 0.00 | 0.00 | 0.00 | 15 | 1008.4 |
| 20260903141510 | 47 | 258 | 0.0 | 0.0 | 0.00 | 0.00 | 0.00 | 15 | 1008.2 |